Temp
62 62 62 62 63 63 62 62 62 62 62 62 63 63 63 62 62 67 63 67 69 68 66 74 73 74 75 71 72 73 62 61 67 68 71 77 73 76 77 77 76 78 77 75 76
61 62 62 62 62 62 62 62 62 61 61 61 62 62 62 62 65 63 67 67 66 67 70 69 67 70 68 68 68 65 60 64 75 77 73 75 75 77 73 74 74 75 74 72 73
60 60 61 62 62 62 62 61 61 61 61 60 61 61 61 64 61 64 66 67 68 67 71 74 74 69 64 68 66 65 60 70 73 73 74 73 72 76 73 73 78 77 77 71 71
60 59 59 60 61 61 61 62 61 61 61 60 60 61 61 62 51 66 65 66 67 70 70 68 67 63 62 61 67 59 67 69 70 71 68 68 75 71 73 77 79 81 81 74 71
59 58 58 59 59 60 61 61 61 61 61 61 60 60 61 53 58 71 66 67 71 69 66 65 63 63 59 65 66 62 64 69 69 69 67 70 67 70 73 79 80 76 74 74 73
58 58 58 58 58 59 60 60 61 61 60 61 61 60 57 44 70 70 68 68 69 67 65 67 65 68 64 63 63 67 64 66 68 66 67 64 67 70 73 79 78 77 74 74 74
58 58 58 58 58 58 58 59 60 60 61 61 61 61 53 52 68 69 68 66 68 67 63 67 68 63 65 59 67 65 58 63 64 66 64 66 59 63 73 76 73 75 75 75 75
57 57 58 58 58 58 58 59 59 60 60 59 59 59 47 66 70 66 68 64 67 66 64 66 67 61 60 66 61 57 58 51 64 64 64 62 55 70 77 74 72 74 74 74 73
57 57 57 57 57 57 58 58 58 58 60 60 57 55 47 65 58 64 67 61 64 66 64 66 63 57 59 52 50 55 48 50 57 67 63 58 57 68 75 71 69 71 73 74 73
57 57 57 57 57 57 57 57 59 58 58 59 58 46 54 52 60 62 67 64 60 61 57 55 55 52 52 50 39 46 48 53 54 62 60 57 55 65 68 67 67 70 72 71 70
56 56 57 57 57 57 56 55 50 44 47 45 49 50 53 59 63 58 62 59 58 56 46 53 46 43 49 52 53 53 53 50 57 63 55 54 56 62 67 68 65 68 69 69 70
55 56 55 56 56 57 56 46 53 52 40 46 51 53 58 59 48 55 62 49 49 43 49 46 41 52 55 54 52 50 46 47 55 59 52 50 52 60 64 65 68 69 69 71 73
55 56 56 56 55 54 51 50 57 56 38 44 49 47 51 55 47 52 56 52 47 44 46 42 48 54 52 50 48 48 47 47 48 54 54 51 50 55 62 65 67 68 69 72 73
56 55 56 56 48 53 49 56 57 56 30 37 42 48 51 52 42 56 59 53 46 43 47 47 53 52 48 48 50 43 53 52 50 48 41 56 41 57 64 64 66 66 68 70 73
55 55 55 55 53 48 54 60 54 47 17 44 45 57 53 45 51 49 59 52 44 44 46 43 47 47 45 48 53 47 55 52 50 47 47 48 45 51 61 58 62 66 67 70 73
54 54 55 52 51 55 58 53 48 27 17 35 43 40 41 44 46 52 50 54 53 45 46 47 56 53 51 53 53 55 51 51 50 46 34 44 46 48 55 59 63 68 72 72 74
54 54 54 55 45 55 53 42 26 20 40 31 35 40 38 39 40 44 43 37 35 29 31 41 43 52 55 48 51 50 45 33 29 31 31 50 45 50 60 66 65 68 71 69 70
53 53 52 53 56 53 45 31 20 31 32 42 41 41 32 40 39 40 39 34 41 42 38 33 29 43 50 48 44 45 46 36 26 30 36 47 39 48 62 66 67 68 69 68 67
53 50 47 50 53 48 34 23 25 32 41 39 40 35 33 37 40 39 37 35 43 43 34 35 35 50 50 52 52 43 38 51 40 36 36 45 49 56 60 60 62 64 64 63 64
45 42 42 51 52 42 30 26 30 42 43 42 32 37 29 32 34 33 35 41 41 47 49 43 32 48 48 52 53 50 51 36 36 27 27 39 43 47 53 57 62 64 63 64 65
43 33 46 49 46 32 24 28 33 43 45 38 35 33 36 33 34 34 35 42 47 46 49 45 39 39 48 40 40 44 42 44 44 41 32 32 41 61 59 61 61 64 63 64 62
35 30 47 48 30 31 27 32 36 37 43 41 42 39 37 37 34 33 35 42 51 49 39 44 38 30 33 47 51 50 45 45 35 33 40 40 43 57 62 63 60 62 61 61 61
32 33 46 44 25 28 33 32 34 35 36 37 35 40 42 35 29 35 37 47 50 46 41 45 32 25 29 38 42 40 45 47 46 45 37 32 40 55 55 55 57 59 58 57 58
33 27 32 34 35 33 30 30 29 39 38 38 35 39 37 31 33 30 35 41 41 44 42 42 32 30 27 35 42 32 39 44 44 35 38 41 45 55 52 55 56 57 57 57 57
33 30 32 26 28 32 32 32 29 28 37 40 32 32 33 28 30 28 34 38 40 41 42 39 27 31 38 41 42 34 39 41 37 41 38 43 46 53 57 57 58 59 58 57 56
31 31 30 33 35 32 32 30 30 33 33 30 32 33 33 30 33 29 37 37 36 41 36 40 29 32 28 36 38 35 35 38 41 43 44 46 46 59 63 65 60 58 56 55 56
37 39 38 33 32 29 31 32 33 37 34 39 35 33 30 32 39 39 40 41 40 36 32 32 30 29 25 30 31 26 34 36 41 46 46 40 49 58 54 55 57 57 57 57 57
MSLP
1017.23 1017.12 1017.02 1017.06 1016.95 1016.82 1016.73 1016.68 1016.62 1016.45 1016.13 1016.11 1015.88 1015.67 1015.70 1015.79 1015.60 1015.18 1014.37 1014.50 1014.21 1014.28 1014.01 1013.57 1013.44 1013.18 1012.94 1012.49 1012.46 1012.00 1010.46 1007.77 1006.53 1006.18 1005.91 1006.37 1006.69 1007.15 1007.55 1007.34 1007.88 1008.30 1008.69 1009.77 1010.55
1017.04 1016.95 1016.89 1016.80 1016.79 1016.69 1016.57 1016.58 1016.53 1016.40 1016.19 1016.13 1015.85 1015.61 1015.56 1015.50 1015.06 1014.32 1014.21 1014.26 1014.36 1014.33 1013.88 1013.30 1013.03 1012.97 1012.61 1012.25 1012.24 1011.46 1009.81 1007.95 1007.09 1006.39 1006.58 1006.70 1006.91 1006.68 1007.47 1007.36 1007.62 1008.17 1009.46 1010.38 1010.98
1016.96 1016.90 1016.70 1016.55 1016.55 1016.55 1016.48 1016.42 1016.34 1016.30 1016.25 1016.16 1016.04 1015.79 1015.54 1015.26 1014.47 1013.25 1014.24 1014.01 1013.74 1014.10 1013.82 1013.18 1012.66 1012.80 1012.32 1011.98 1011.61 1010.70 1008.96 1008.21 1007.73 1007.92 1007.81 1007.38 1007.42 1007.34 1007.10 1006.56 1006.75 1007.12 1008.29 1009.94 1010.58
1016.65 1016.74 1016.64 1016.47 1016.29 1016.26 1016.29 1016.20 1016.19 1016.19 1016.17 1016.19 1016.18 1016.01 1015.65 1015.19 1014.00 1013.38 1013.96 1013.80 1013.30 1013.56 1013.66 1013.29 1012.92 1012.48 1011.94 1011.19 1011.10 1010.50 1009.32 1009.06 1008.65 1008.52 1008.84 1008.22 1007.65 1007.36 1007.09 1006.43 1006.87 1006.98 1007.66 1009.08 1010.00
1016.40 1016.43 1016.41 1016.31 1016.25 1016.08 1015.99 1016.01 1016.00 1016.02 1016.02 1016.03 1016.13 1016.08 1015.69 1014.81 1013.04 1013.00 1013.47 1013.49 1013.33 1013.55 1013.44 1013.16 1012.63 1012.32 1011.43 1010.71 1010.68 1009.93 1009.69 1009.13 1009.26 1009.18 1009.25 1008.78 1008.16 1007.55 1006.68 1006.73 1007.10 1007.70 1008.22 1008.71 1009.33
1016.04 1016.08 1016.08 1016.10 1016.08 1015.98 1015.81 1015.74 1015.72 1015.74 1015.79 1015.87 1015.93 1016.00 1015.63 1014.09 1012.87 1012.98 1013.26 1013.25 1013.10 1013.51 1013.42 1013.25 1012.65 1012.18 1011.37 1010.79 1010.32 1009.66 1009.77 1009.41 1009.18 1009.41 1009.34 1008.96 1007.98 1007.62 1006.58 1006.56 1006.69 1007.13 1007.78 1008.32 1008.78
1015.36 1015.46 1015.65 1015.84 1015.87 1015.82 1015.75 1015.51 1015.40 1015.40 1015.51 1015.58 1015.78 1015.62 1014.82 1013.53 1013.18 1013.23 1013.07 1013.15 1013.10 1013.20 1013.36 1013.27 1013.09 1012.83 1011.68 1011.56 1010.59 1010.30 1009.77 1009.36 1009.02 1009.07 1009.14 1009.05 1007.71 1006.74 1006.74 1006.90 1006.76 1006.76 1007.15 1007.68 1008.16
1014.78 1014.94 1015.14 1015.40 1015.44 1015.45 1015.49 1015.36 1015.21 1015.21 1015.21 1015.47 1015.57 1015.31 1013.83 1012.93 1013.12 1013.18 1013.11 1013.13 1013.42 1013.51 1013.70 1013.76 1013.73 1013.43 1012.54 1011.42 1010.99 1010.50 1009.87 1008.58 1008.24 1008.80 1009.00 1009.09 1006.00 1005.80 1005.88 1006.16 1006.01 1006.38 1006.71 1007.01 1007.52
1014.12 1014.37 1014.62 1014.85 1014.97 1015.07 1015.04 1015.09 1015.10 1014.99 1014.96 1015.23 1015.41 1014.94 1013.33 1012.55 1012.82 1012.51 1012.61 1012.77 1012.97 1013.26 1013.65 1013.75 1013.70 1013.16 1012.59 1012.11 1011.13 1009.87 1008.42 1008.08 1007.91 1007.65 1008.33 1008.41 1006.58 1005.82 1005.63 1005.87 1005.96 1006.14 1006.18 1006.32 1006.74
1013.19 1013.54 1013.91 1014.16 1014.42 1014.55 1014.69 1014.81 1014.62 1014.73 1014.86 1014.81 1014.76 1014.92 1012.87 1012.22 1011.85 1012.13 1012.30 1012.74 1012.68 1012.90 1013.52 1013.51 1013.32 1012.60 1011.82 1011.16 1008.80 1009.04 1008.71 1008.10 1007.27 1007.36 1007.91 1007.56 1006.96 1006.11 1006.02 1006.04 1005.83 1005.91 1005.74 1006.02 1006.27
1012.39 1012.76 1013.10 1013.53 1013.73 1013.95 1014.38 1014.58 1014.66 1014.69 1014.07 1013.24 1012.96 1012.60 1012.07 1012.08 1011.90 1011.96 1012.05 1012.43 1012.90 1012.58 1012.12 1012.56 1012.27 1009.95 1010.32 1010.45 1010.42 1009.55 1008.61 1007.99 1007.93 1007.91 1008.30 1007.55 1006.92 1005.82 1005.88 1005.61 1005.65 1005.46 1005.46 1005.54 1005.58
1011.52 1011.96 1012.34 1012.80 1013.15 1013.32 1013.66 1013.47 1012.88 1013.24 1013.51 1013.51 1012.97 1012.46 1011.88 1012.12 1012.12 1011.62 1012.09 1012.22 1012.35 1011.29 1012.04 1011.83 1009.26 1009.49 1010.25 1010.37 1010.09 1009.93 1009.24 1008.65 1008.35 1008.11 1008.78 1007.91 1006.56 1005.91 1005.28 1004.92 1004.59 1004.64 1004.79 1004.71 1004.72
1010.56 1011.15 1011.67 1012.32 1012.76 1013.03 1012.88 1012.94 1013.36 1013.50 1013.79 1012.44 1012.39 1012.05 1011.90 1012.25 1011.59 1010.92 1011.58 1011.26 1010.99 1011.25 1010.25 1009.27 1007.12 1009.56 1009.57 1009.37 1009.42 1009.07 1008.79 1009.20 1008.95 1008.77 1008.51 1007.99 1005.37 1005.19 1004.27 1004.07 1003.98 1003.95 1004.18 1004.06 1003.94
1009.72 1010.47 1011.10 1011.84 1012.96 1012.15 1011.93 1012.63 1013.29 1013.86 1013.40 1011.32 1010.94 1010.01 1010.61 1011.42 1010.96 1010.64 1010.55 1010.60 1010.78 1009.84 1009.79 1008.94 1008.73 1008.25 1008.57 1008.06 1008.64 1007.86 1008.89 1009.14 1009.10 1009.01 1007.89 1007.48 1003.27 1002.96 1002.39 1001.89 1002.31 1002.87 1003.05 1002.95 1002.93
1009.00 1009.69 1010.39 1011.20 1010.86 1011.07 1011.22 1011.76 1013.30 1014.03 1011.90 1008.76 1009.07 1009.25 1009.22 1009.85 1008.84 1009.06 1009.64 1010.19 1009.21 1009.14 1009.25 1007.33 1007.52 1007.53 1007.39 1007.44 1008.12 1007.29 1008.52 1008.88 1009.33 1008.93 1008.68 1006.74 1005.21 1001.98 1002.22 1001.46 1001.57 1001.86 1002.02 1001.94 1001.97
1008.33 1009.03 1009.77 1010.50 1010.97 1010.69 1011.05 1012.05 1013.23 1013.30 1009.71 1008.77 1008.73 1008.97 1009.26 1009.17 1008.60 1008.38 1009.14 1009.92 1009.65 1009.46 1008.95 1007.34 1007.47 1007.17 1006.42 1007.21 1007.76 1008.28 1008.54 1008.62 1009.06 1009.16 1008.21 1003.85 1005.35 1000.93 1001.30 1001.04 1000.94 1000.91 1000.73 1000.98 1001.37
1007.63 1008.30 1008.96 1009.54 1009.79 1010.81 1011.52 1012.46 1012.20 1010.05 1008.40 1008.29 1008.13 1008.37 1008.55 1008.42 1008.80 1008.47 1008.52 1009.25 1009.02 1009.29 1008.66 1007.67 1006.95 1006.78 1006.59 1006.72 1007.41 1007.76 1007.98 1007.98 1008.66 1007.67 1003.33 1004.96 1004.34 1001.06 1000.31 1000.16 1000.49 1000.11 1000.38 1001.14 1001.80
1006.62 1007.65 1008.35 1009.12 1009.73 1010.30 1011.21 1011.69 1009.64 1007.59 1007.26 1006.95 1007.04 1007.52 1008.09 1007.92 1007.95 1008.03 1007.98 1008.14 1008.54 1007.94 1007.04 1006.68 1006.23 1006.39 1006.03 1005.45 1005.76 1006.27 1006.22 1005.50 1005.04 1004.68 1003.69 1005.06 1001.53 1000.40 1000.40 1000.44 1000.49 1000.65 1000.79 1001.37 1002.12
1006.02 1007.14 1007.88 1008.72 1009.37 1010.11 1010.42 1009.10 1007.34 1006.76 1006.12 1006.21 1006.54 1006.50 1007.01 1007.47 1007.36 1007.39 1007.37 1007.31 1006.59 1007.13 1006.70 1005.38 1004.46 1004.64 1005.26 1005.30 1005.20 1005.41 1005.53 1003.82 1004.86 1004.82 1003.74 1002.11 1000.70 1000.80 1000.51 1000.50 1000.36 1000.35 1000.97 1001.61 1002.13
1005.29 1006.52 1007.14 1008.16 1008.83 1009.64 1009.31 1007.50 1006.86 1006.04 1005.88 1005.85 1005.57 1005.81 1006.12 1006.78 1006.89 1007.05 1006.58 1006.41 1005.94 1005.85 1006.18 1004.87 1004.34 1003.97 1004.51 1004.85 1004.47 1003.76 1004.03 1004.97 1004.84 1003.75 1002.81 1001.13 999.86 999.14 999.24 999.48 999.52 999.72 1000.40 1001.23 1001.98
1004.89 1005.97 1006.12 1007.38 1008.74 1008.59 1007.15 1006.61 1006.42 1006.00 1005.69 1005.52 1005.27 1005.31 1005.48 1005.93 1006.24 1006.16 1005.67 1005.24 1004.84 1004.37 1005.33 1005.23 1005.11 1003.59 1003.30 1003.42 1003.45 1003.53 1003.11 1004.02 1003.91 1003.10 1002.17 1001.02 998.50 998.70 998.65 999.04 999.31 999.65 1000.55 1001.14 1002.16
1004.29 1005.39 1005.09 1006.43 1007.38 1006.87 1006.63 1006.39 1006.36 1005.99 1005.86 1005.48 1005.26 1005.12 1005.36 1005.62 1005.84 1005.91 1005.13 1004.40 1003.88 1004.04 1004.67 1004.77 1005.16 1004.39 1004.10 1003.37 1003.27 1002.87 1002.67 1003.09 1002.59 1002.35 1001.90 1000.37 998.58 999.03 998.75 998.92 999.79 1000.00 1000.68 1001.81 1002.66
1003.84 1004.55 1005.15 1005.68 1005.70 1005.72 1005.66 1005.97 1006.12 1005.73 1005.53 1005.59 1005.35 1005.24 1005.37 1005.69 1006.08 1005.31 1004.84 1004.57 1004.23 1004.37 1004.38 1004.62 1004.85 1005.10 1004.33 1004.10 1003.34 1002.64 1002.57 1002.69 1002.82 1002.05 1000.80 1000.34 998.66 999.66 999.66 999.86 1000.28 1000.60 1001.33 1002.22 1002.75
1003.50 1004.27 1005.21 1005.12 1005.15 1004.89 1005.00 1005.06 1005.34 1005.37 1005.28 1005.42 1005.28 1005.62 1005.80 1006.17 1006.11 1005.28 1004.99 1005.05 1005.20 1005.02 1005.31 1005.52 1004.95 1004.69 1003.73 1003.12 1002.98 1003.17 1002.73 1002.67 1002.31 1001.49 1000.62 999.59 999.37 998.69 999.70 999.74 1000.26 1000.86 1001.72 1002.29 1002.95
1002.18 1002.75 1003.10 1003.80 1004.25 1004.54 1004.75 1004.41 1004.61 1004.94 1005.13 1005.23 1005.69 1005.62 1005.52 1006.04 1005.99 1005.97 1005.95 1005.51 1005.48 1005.36 1005.44 1005.82 1005.72 1004.77 1003.72 1003.25 1002.90 1003.43 1002.39 1002.01 1001.73 1001.52 1000.44 999.80 998.85 998.60 998.80 999.38 1000.01 1000.99 1001.82 1002.58 1003.21
1001.33 1002.11 1003.25 1002.76 1003.23 1003.64 1003.75 1003.45 1003.57 1004.12 1004.41 1004.84 1004.97 1005.61 1005.81 1005.88 1005.73 1005.91 1005.47 1005.42 1005.28 1005.48 1006.10 1005.98 1005.70 1005.29 1004.72 1003.91 1003.09 1002.61 1002.92 1002.31 1001.24 1001.00 1000.39 999.91 999.00 998.63 998.50 998.89 1000.12 1001.29 1002.07 1002.80 1003.48
1001.28 1002.07 1001.67 1001.75 1002.61 1002.45 1002.19 1002.59 1003.06 1003.83 1004.76 1004.28 1005.09 1005.80 1006.14 1006.19 1006.13 1006.38 1006.12 1006.02 1006.06 1006.11 1006.51 1006.50 1006.08 1005.48 1004.25 1004.01 1003.56 1002.79 1002.03 1002.19 1001.08 1000.30 999.93 999.17 998.82 998.97 999.34 999.86 1000.98 1001.67 1002.32 1003.11 1004.09
Wind_Speed
10 9 8 7 7 6 5 6 5 3 5 6 10 5 5 5 11 9 9 5 5 5 5 7 8 8 8 8 5 3 8 14 18 15 12 4 7 5 3 6 4 7 2 6 12
9 11 10 9 8 8 7 6 5 5 5 6 8 10 7 3 10 12 5 4 7 4 9 12 13 11 8 12 7 12 11 18 18 11 8 4 9 4 6 9 10 10 7 7 11
11 10 12 11 10 8 8 7 5 4 4 5 7 7 7 8 10 4 2 7 9 11 12 11 11 12 15 10 13 11 18 16 11 8 9 11 7 5 8 12 11 12 14 12 13
13 11 9 10 12 10 8 8 8 6 3 2 4 7 7 4 7 7 1 3 3 11 12 11 13 16 14 17 17 14 19 18 7 5 6 12 11 8 14 13 6 4 3 15 15
13 10 9 7 10 13 10 8 8 8 7 4 2 3 5 8 12 10 1 4 6 7 12 14 15 17 18 13 19 22 19 11 15 14 10 9 13 13 14 13 7 4 4 12 12
13 12 10 8 8 10 12 10 9 9 8 8 4 2 10 16 5 2 1 2 2 7 9 12 11 16 13 19 16 10 21 23 15 12 12 13 18 11 10 16 16 12 13 12 12
12 11 12 11 9 9 11 13 11 10 8 6 6 8 13 17 2 4 4 4 6 4 8 10 13 12 7 17 15 17 22 17 16 18 13 5 19 25 19 17 8 11 14 14 14
13 11 11 12 11 10 10 12 14 12 9 5 4 9 10 4 16 18 11 7 6 3 2 7 7 13 17 13 8 12 22 21 14 17 10 10 22 19 19 20 22 19 15 13 13
17 16 16 12 11 11 11 11 13 13 10 6 7 9 15 4 18 18 18 19 12 11 7 7 7 11 11 15 14 19 15 21 18 17 12 17 16 16 15 10 14 14 14 14 13
20 18 17 13 12 11 11 10 10 10 8 5 7 4 14 8 10 12 15 16 15 11 9 8 8 12 17 17 19 15 19 21 17 15 17 19 19 19 6 6 15 16 14 12 12
21 19 17 15 14 12 9 5 5 4 8 11 8 11 5 1 5 6 6 13 16 16 21 15 12 24 25 24 20 23 19 17 19 16 9 18 20 23 19 20 15 14 12 13 13
22 18 15 13 14 13 11 6 9 5 6 12 19 19 17 1 5 8 9 12 17 27 21 17 28 23 21 22 24 23 23 18 15 4 6 12 18 19 20 19 19 19 20 17 17
20 18 16 12 13 10 13 16 3 1 6 9 17 21 26 16 14 14 15 16 17 23 29 30 24 25 21 24 25 26 26 20 14 4 13 15 25 21 26 22 20 19 19 18 18
19 19 17 12 4 10 14 15 7 4 6 7 12 11 15 17 11 23 19 12 13 22 27 27 28 24 27 29 25 27 23 22 22 14 13 10 20 21 17 21 21 18 20 21 21
21 19 17 18 5 13 7 12 12 4 8 10 15 4 8 22 6 15 25 21 25 22 15 23 22 27 25 28 25 22 16 21 20 19 17 26 16 11 18 15 15 15 17 20 18
21 20 19 12 10 8 8 15 8 8 11 10 10 12 12 26 20 1 16 18 14 25 25 28 20 22 32 22 23 17 19 19 16 14 16 29 20 16 18 16 13 14 15 17 14
22 19 17 11 13 12 14 8 7 13 5 9 11 13 19 17 21 17 18 25 16 13 22 25 26 21 20 26 21 22 21 9 10 13 27 6 19 21 8 15 13 15 14 6 6
22 21 15 11 11 16 10 6 15 11 17 10 15 16 14 14 18 23 20 20 29 24 13 23 17 29 22 27 26 28 24 11 20 15 18 13 18 14 4 16 16 13 10 4 7
20 9 7 9 12 12 6 15 15 16 16 20 12 13 17 18 14 18 24 20 27 29 25 20 31 20 20 25 27 27 23 28 19 2 8 15 20 20 8 9 10 15 11 11 11
9 6 7 13 15 11 7 20 9 17 13 17 22 17 16 17 20 13 14 15 26 29 32 21 18 28 29 23 26 24 29 20 10 20 19 15 22 13 17 21 19 15 14 11 7
8 5 9 16 9 6 15 14 15 14 16 19 20 17 20 16 16 19 8 15 26 23 26 29 20 10 25 26 28 20 22 20 18 14 15 19 18 15 15 12 14 17 12 10 7
5 7 12 15 11 4 12 12 6 18 17 15 13 19 21 17 17 17 22 18 16 22 23 29 14 20 13 22 26 27 27 28 14 24 19 15 15 2 2 3 3 8 7 6 6
8 4 7 11 11 13 7 8 10 12 17 14 14 15 17 16 13 17 19 14 12 11 13 19 12 19 17 13 13 26 27 23 25 18 19 19 18 5 4 5 7 7 7 7 6
5 7 3 7 5 16 15 18 14 16 16 14 7 14 16 12 5 2 8 8 1 5 5 5 6 15 20 21 15 9 21 26 26 21 17 18 21 19 9 9 9 8 9 8 8
3 4 3 8 12 16 15 11 17 12 16 18 9 10 15 9 9 6 6 5 5 3 2 4 10 14 24 25 21 12 21 26 29 25 25 20 23 21 14 12 12 10 9 9 8
6 5 2 4 9 21 21 16 21 19 16 13 14 13 10 6 10 7 9 5 4 8 4 5 8 8 11 24 24 19 15 21 27 28 26 23 22 19 19 13 11 11 11 10 9
4 1 4 7 10 12 17 21 23 18 3 15 15 13 9 7 3 3 4 4 4 2 6 4 3 4 10 6 12 18 19 18 16 24 27 24 24 20 4 4 10 13 12 10 8
Wind_Direction
282 282 281 287 295 280 306 304 310 355 33 5 15 346 266 285 293 256 281 13 328 323 262 178 202 200 211 214 222 251 243 240 235 240 255 113 220 143 20 250 206 186 321 94 130
294 284 272 272 286 304 282 290 313 335 17 6 21 39 10 280 289 277 49 319 272 254 218 193 197 188 200 215 207 211 230 244 260 272 241 200 244 208 213 210 218 208 134 142 155
296 307 286 260 260 277 285 276 285 325 357 14 13 9 3 301 281 119 10 281 258 209 236 234 223 202 223 220 214 218 240 243 250 282 299 277 245 224 229 242 229 224 196 178 178
276 290 298 298 260 252 265 270 276 276 290 355 6 2 320 278 258 125 1 12 344 194 215 216 224 206 219 221 223 250 240 252 271 266 255 247 270 246 234 244 33 292 291 173 193
271 274 275 292 300 261 250 260 261 270 276 281 302 359 269 228 242 149 27 100 96 177 208 213 214 214 230 236 233 230 253 237 259 247 260 267 253 259 266 247 197 114 184 188 201
267 269 265 277 287 300 262 248 255 255 266 272 268 246 255 245 288 317 287 142 131 186 210 227 232 233 263 254 239 226 238 251 235 251 243 246 254 245 253 239 243 230 219 219 217
242 268 269 255 265 289 299 267 250 249 252 267 274 258 256 242 241 140 98 125 152 159 224 224 259 274 219 261 257 254 264 251 244 231 252 253 255 242 243 250 243 247 240 232 224
249 250 261 255 258 265 284 293 260 249 252 253 269 264 256 265 233 247 243 214 208 208 224 271 261 262 263 274 265 238 241 251 233 216 233 205 257 248 241 234 247 243 239 238 228
233 238 247 252 255 260 261 281 285 252 233 228 238 237 267 182 228 233 228 240 237 245 259 250 241 238 232 236 251 226 246 231 248 213 211 210 260 257 253 214 243 251 248 244 247
234 228 234 238 244 255 264 257 293 253 224 237 252 295 226 233 236 233 239 233 236 222 223 205 215 228 218 214 224 226 232 248 244 215 222 231 243 257 219 242 244 254 248 239 241
235 226 221 228 243 246 241 231 205 236 219 191 182 219 101 242 198 195 221 210 227 224 216 196 212 219 223 222 238 260 253 241 249 239 244 245 253 254 246 248 234 246 239 243 241
222 217 219 223 234 235 227 223 248 33 249 233 254 228 253 317 278 227 184 188 199 218 209 227 228 225 222 234 227 238 250 259 256 248 241 268 265 254 254 251 249 244 246 247 257
216 212 208 214 232 235 218 219 216 181 260 243 221 241 238 237 242 234 195 209 215 221 215 217 225 221 223 217 225 228 234 235 247 261 250 277 268 248 252 244 246 243 244 248 249
209 207 206 196 228 223 223 208 186 168 253 229 214 242 218 220 252 230 208 212 216 228 225 237 235 232 217 222 215 226 219 240 241 246 258 207 281 266 250 239 226 236 238 238 237
214 202 201 189 215 193 189 184 149 88 250 183 189 133 191 187 168 202 214 217 225 214 211 228 228 225 233 225 222 239 227 222 240 249 266 257 263 276 233 232 229 222 233 235 237
211 200 200 206 224 209 154 134 145 204 227 170 142 192 190 205 223 211 196 219 240 241 234 244 225 228 225 219 219 222 225 223 224 235 242 237 243 256 243 245 249 246 246 232 224
209 203 198 200 212 186 141 152 206 219 148 168 194 190 207 200 222 225 207 198 203 209 229 244 238 240 229 216 210 209 192 186 212 213 235 207 227 246 253 245 285 238 227 197 210
198 207 205 210 211 157 165 182 230 207 209 159 202 190 204 208 219 217 225 205 218 233 235 226 217 215 223 215 201 207 197 210 214 217 241 219 240 237 237 248 264 249 251 255 215
191 193 197 193 187 165 187 204 220 220 216 214 212 214 215 224 231 216 222 216 222 217 221 225 229 193 208 207 200 200 217 217 248 293 259 225 233 257 226 255 252 244 227 229 239
173 173 190 182 180 177 217 236 222 230 221 211 218 210 217 217 212 218 204 219 230 225 221 241 251 224 201 208 218 214 212 206 218 228 228 229 240 237 204 222 231 230 231 232 217
159 158 176 159 175 203 218 216 219 230 223 212 223 224 237 219 219 220 204 222 217 226 220 232 250 237 206 201 208 211 209 220 223 229 218 238 242 231 228 219 234 231 220 217 195
123 185 154 160 200 196 219 212 155 222 218 228 248 235 234 234 232 225 236 234 215 220 220 221 230 248 243 216 214 217 216 209 215 214 232 251 238 79 250 219 228 259 144 178 183
157 150 167 172 213 211 217 210 211 209 211 215 217 227 236 235 238 218 230 242 230 238 233 220 218 240 262 232 242 225 219 223 220 229 217 222 231 155 172 195 214 209 180 178 163
144 164 163 196 232 214 211 207 210 211 211 218 213 240 222 223 212 305 222 197 24 246 331 360 231 215 230 236 231 204 221 228 221 227 225 228 239 228 206 199 189 186 178 166 160
169 187 153 177 217 213 214 198 202 194 218 199 198 208 193 208 206 219 255 195 208 186 232 193 257 247 234 228 246 262 232 214 225 226 229 228 234 236 194 195 194 182 174 165 163
137 163 135 224 208 206 202 205 196 190 171 188 209 193 195 185 202 195 218 212 240 165 197 181 265 232 267 251 242 234 241 270 224 225 230 243 246 252 246 232 189 186 181 182 173
154 88 226 170 211 215 197 207 208 191 227 202 196 175 201 219 284 32 16 324 323 251 208 198 230 250 249 200 248 253 236 245 262 234 225 227 232 238 227 164 207 199 182 172 146